Погода в Бельдире-Арыг

Россия / Республика Тыва     50°34′21″N   94°58′26″E
темп.,
°C
ветер,
м/с
пор.,
м/с
влажн.,
%
обл.,
%
осадки,
мм/ч
давл.,
гПа
погр.,
м
20 апреля, вт
вт2001:00+3всв566699 0.4 100677
04:00+3всв4563100 0.0 100562
07:00+4всв6756100 0.0 1004148
10:00+4св7651100 0.0 1005259
13:00+4св7751100 0.0 1004322
16:00+6св7648100 0.1 1002356
19:00−1св81169100 0.3 1008438
22:00−3ссв61073100 0.4 1012530
21 апреля, ср
ср2101:00−4св61069100 0.6 1014456
04:00−6св61166100 0.1 1016526
07:00−6ссв51064100 0.1 1018555
10:00−3ссв685199 0.0 1017719
13:00−1ссв5542100 0.0 1015953
16:00−1св565290 0.1 1015696
19:00−2ссв455597 0.1 1016516
22:00−5св4654100 0.0 1019216
22 апреля, чт
чт2201:00−4св4660100 0.0 1019289
04:00−5св3463100 0.0 1020127
07:00−4ссв3555100 0.0 1022319
10:00−1ссв5639100 0.0 1022939
13:00+2ссв5538100 0.0 10221313
16:00+3ссв663922 0.0 10231223
19:00+1ссв6853100 0.0 1025718
22:00−1св4861100 0.0 1029326
23 апреля, пт
пт2301:00−1св4756100 0.0 1030321
04:00−3св5864100 0.0 1031420
07:00−3св5864100 0.0 1032402
10:00−1св4560100 0.0 1032572
13:000св4663100 0.2 1031728
16:00+1св4665100 0.1 1030673
19:000св4676100 0.3 1030400
22:00−1св3587100 1.2 1030242
24 апреля, сб
сб2401:00−2св3491100 2.5 1028202
04:00−2св3494100 1.9 1028187
07:00−2св2394100 2.9 1027158
10:000юз1197100 1.3 1027240
13:00+1ю2289100 1.8 1025488
16:00+2юз2186100 0.2 1024421
19:00+1зюз2293100 0.4 1024141
22:00+1зсз11100100 0.4 102384